Inquirer Daily News

Weather

Get conditions and forecasts for any City, State, ZIP code or Country:  
Northeast Philadelphia, PA
on Saturday, January 19, 2013

Saturday
Previous Day Next Day
Daily Summary
 ActualAverage (KTTN)Record (KTTN)
Temperature
Mean Temperature °F 31°F  
Max Temperature 50°F 39°F 65°F (1951)
Min Temperature 28°F 23°F -8°F (1875)
Degree Days
Heating Degree Days 26 34  
Month to date heating degree days 645  
Since 1 July heating degree days 2540  
Cooling Degree Days 0 0  
Month to date cooling degree days 0  
Year to date cooling degree days 0  
Moisture
Dew Point 24°F   
Average Humidity 54    
Maximum Humidity 70    
Minimum Humidity 38    
Precipitation
Precipitation 0.00 in 0.09 in 2.00 in (1996)
Month to date precipitation 1.98  
Year to date precipitation 1.98  
Wind
Wind Speed 10 mph   
Max Wind Speed 17 mph   
Max Gust Speed 26 mph   
Visibility 10 miles   
Events     

Key: T is trace of precipitation, MM is missing value
Source: NWS Daily Summary
Time(EST)TemperatureDew PointHumidity Pressure Visibility Wind DirectionWind SpeedGust SpeedPrecipitationEvents Conditions
12:54 AM 30.0°F 12.9°F 49% 30.43 in 10.0 miles SSW 5.8 mph - N/A   Clear
1:54 AM 30.0°F 14.0°F 51% 30.42 in 10.0 miles SSW 9.2 mph - N/A   Clear
2:54 AM 28.9°F 16.0°F 58% 30.40 in 10.0 miles SSW 4.6 mph - N/A   Clear
3:54 AM 28.9°F 18.0°F 64% 30.38 in 10.0 miles SSW 5.8 mph - N/A   Clear
4:54 AM 30.9°F 19.9°F 64% 30.36 in 10.0 miles SSW 10.4 mph - N/A   Clear
5:54 AM 32.0°F 21.0°F 64% 30.36 in 10.0 miles SW 11.5 mph - N/A   Partly Cloudy
6:54 AM 33.1°F 23.0°F 66% 30.35 in 10.0 miles SW 10.4 mph - N/A   Clear
7:54 AM 33.1°F 24.1°F 70% 30.34 in 10.0 miles SSW 12.7 mph 19.6 mph N/A   Clear
8:54 AM 36.0°F 25.0°F 64% 30.35 in 10.0 miles SSW 17.3 mph 23.0 mph N/A   Clear
9:54 AM 37.9°F 25.0°F 60% 30.34 in 10.0 miles SW 17.3 mph 26.5 mph N/A   Clear
10:54 AM 42.1°F 26.1°F 53% 30.30 in 10.0 miles SW 15.0 mph - N/A   Clear
11:54 AM 45.0°F 26.1°F 48% 30.25 in 10.0 miles SW 17.3 mph 21.9 mph N/A   Clear
12:54 PM 46.9°F 26.1°F 44% 30.20 in 10.0 miles SW 16.1 mph 21.9 mph N/A   Clear
1:54 PM 48.9°F 26.1°F 41% 30.17 in 10.0 miles SSW 13.8 mph 23.0 mph N/A   Clear
2:54 PM 50.0°F 25.0°F 38% 30.14 in 10.0 miles SW 17.3 mph 26.5 mph N/A   Clear
3:54 PM 50.0°F 26.1°F 39% 30.12 in 10.0 miles SW 13.8 mph 20.7 mph N/A   Clear
4:54 PM 48.9°F 25.0°F 39% 30.10 in 10.0 miles SW 12.7 mph 19.6 mph N/A   Clear
5:54 PM 46.9°F 26.1°F 44% 30.10 in 10.0 miles SSW 5.8 mph - N/A   Clear
6:54 PM 45.0°F 27.0°F 49% 30.09 in 10.0 miles SSW 9.2 mph - N/A   Clear
7:54 PM 44.1°F 27.0°F 51% 30.07 in 10.0 miles SSW 11.5 mph 17.3 mph N/A   Clear
8:54 PM 43.0°F 28.0°F 56% 30.06 in 10.0 miles SSW 9.2 mph - N/A   Clear
9:54 PM 42.1°F 28.0°F 58% 30.03 in 10.0 miles SSW 10.4 mph - N/A   Clear
10:54 PM 41.0°F 28.0°F 60% 30.00 in 10.0 miles SSW 6.9 mph - N/A   Clear
11:54 PM 41.0°F 28.0°F 60% 29.96 in 10.0 miles SSW 9.2 mph - N/A   Clear
Astronomy
Sunrise:07:18 AM (EST) Moon Rise:11:28 AM (EST)1/19
Sunset:05:03 PM (EST) Moon Set:12:50 AM (EST)1/19
Moon Phase
Jan. 19 Jan. 26 Feb. 03 Feb. 10 Feb. 17

Copyright © 2014 The Weather Underground, Inc.